Time,TemperatureF,DewpointF,PressureIn,WindDirection,WindDirectionDegrees,WindSpeedMPH,WindSpeedGustMPH,Humidity,HourlyPrecipIn,Conditions,Clouds,dailyrainin,SoftwareType,DateUTC
2013-03-11 00:11:00,37.5,35.0,30.24,SSE,149,4.0,-999.0,92,-99.99,,,0.00,weatherlink.com 1.10,2013-03-11 04:11:00,
2013-03-11 00:26:00,37.6,36.0,30.24,ESE,117,9.0,-999.0,92,-99.99,,,0.00,weatherlink.com 1.10,2013-03-11 04:26:00,
2013-03-11 00:41:00,37.7,36.0,30.22,SSE,165,2.0,-999.0,93,-99.99,,,0.00,weatherlink.com 1.10,2013-03-11 04:41:00,
2013-03-11 01:11:00,37.9,36.0,30.24,SSE,156,6.0,-999.0,94,-99.99,,,0.00,weatherlink.com 1.10,2013-03-11 05:11:00,
2013-03-11 01:26:00,37.9,36.0,30.23,SE,132,7.0,-999.0,94,-99.99,,,0.00,weatherlink.com 1.10,2013-03-11 05:26:00,
2013-03-11 01:41:00,38.0,37.0,30.22,SSE,156,0.0,-999.0,94,-99.99,,,0.00,weatherlink.com 1.10,2013-03-11 05:41:00,
2013-03-11 01:56:00,38.2,37.0,30.22,SSE,149,6.0,-999.0,94,-99.99,,,0.00,weatherlink.com 1.10,2013-03-11 05:56:00,
2013-03-11 02:11:00,38.3,37.0,30.23,SE,142,2.0,-999.0,95,-99.99,,,0.00,weatherlink.com 1.10,2013-03-11 06:11:00,
2013-03-11 02:26:00,38.4,37.0,30.22,SSW,193,5.0,-999.0,95,-99.99,,,0.00,weatherlink.com 1.10,2013-03-11 06:26:00,
2013-03-11 02:41:00,38.6,37.0,30.21,SE,142,4.0,-999.0,95,-99.99,,,0.00,weatherlink.com 1.10,2013-03-11 06:41:00,
2013-03-11 02:56:00,38.6,37.0,30.21,South,171,4.0,-999.0,95,-99.99,,,0.00,weatherlink.com 1.10,2013-03-11 06:56:00,
2013-03-11 03:11:00,38.7,37.0,30.21,SSE,153,2.0,-999.0,95,-99.99,,,0.00,weatherlink.com 1.10,2013-03-11 07:11:00,
2013-03-11 03:26:00,38.8,38.0,30.21,SSW,205,3.0,-999.0,95,-99.99,,,0.00,weatherlink.com 1.10,2013-03-11 07:26:00,
2013-03-11 03:41:00,38.9,38.0,30.20,South,176,1.0,-999.0,95,-99.99,,,0.00,weatherlink.com 1.10,2013-03-11 07:41:00,
2013-03-11 03:56:00,38.8,38.0,30.19,SSE,163,0.0,-999.0,96,-99.99,,,0.00,weatherlink.com 1.10,2013-03-11 07:56:00,
2013-03-11 04:11:00,38.9,38.0,30.18,SE,140,0.0,-999.0,96,-99.99,,,0.00,weatherlink.com 1.10,2013-03-11 08:11:00,
2013-03-11 04:26:00,38.9,38.0,30.17,ESE,103,2.0,-999.0,96,-99.99,,,0.00,weatherlink.com 1.10,2013-03-11 08:26:00,
2013-03-11 04:41:00,39.0,38.0,30.18,SSE,163,1.0,-999.0,96,-99.99,,,0.00,weatherlink.com 1.10,2013-03-11 08:41:00,
2013-03-11 04:56:00,39.1,38.0,30.17,SE,135,6.0,-999.0,96,-99.99,,,0.00,weatherlink.com 1.10,2013-03-11 08:56:00,
2013-03-11 05:11:00,39.1,38.0,30.17,South,179,0.0,-999.0,96,-99.99,,,0.00,weatherlink.com 1.10,2013-03-11 09:11:00,
2013-03-11 05:26:00,39.2,38.0,30.18,SSE,150,6.0,-999.0,96,-99.99,,,0.00,weatherlink.com 1.10,2013-03-11 09:26:00,
2013-03-11 05:41:00,39.3,38.0,30.18,SSE,164,0.0,-999.0,96,-99.99,,,0.00,weatherlink.com 1.10,2013-03-11 09:41:00,
2013-03-11 05:56:00,39.4,38.0,30.17,SSE,148,0.0,-999.0,96,-99.99,,,0.00,weatherlink.com 1.10,2013-03-11 09:56:00,
2013-03-11 06:26:00,39.5,39.0,30.16,SE,144,4.0,-999.0,96,-99.99,,,0.00,weatherlink.com 1.10,2013-03-11 10:26:00,
2013-03-11 06:41:00,39.6,39.0,30.16,South,186,5.0,-999.0,96,-99.99,,,0.00,weatherlink.com 1.10,2013-03-11 10:41:00,
2013-03-11 06:56:00,39.8,39.0,30.17,South,172,4.0,-999.0,96,-99.99,,,0.00,weatherlink.com 1.10,2013-03-11 10:56:00,
2013-03-11 07:11:00,40.1,39.0,30.16,SSE,163,6.0,-999.0,96,-99.99,,,0.00,weatherlink.com 1.10,2013-03-11 11:11:00,
2013-03-11 07:26:00,40.1,39.0,30.17,SSW,195,0.0,-999.0,96,-99.99,,,0.00,weatherlink.com 1.10,2013-03-11 11:26:00,
2013-03-11 07:41:00,40.2,39.0,30.17,SSE,148,1.0,-999.0,96,-99.99,,,0.00,weatherlink.com 1.10,2013-03-11 11:41:00,
2013-03-11 07:56:00,40.5,40.0,30.17,South,188,0.0,-999.0,96,-99.99,,,0.00,weatherlink.com 1.10,2013-03-11 11:56:00,
2013-03-11 08:11:00,40.5,40.0,30.16,SE,133,4.0,-999.0,96,-99.99,,,0.00,weatherlink.com 1.10,2013-03-11 12:11:00,
2013-03-11 08:26:00,40.9,40.0,30.17,ESE,121,7.0,-999.0,96,-99.99,,,0.00,weatherlink.com 1.10,2013-03-11 12:26:00,
2013-03-11 08:41:00,41.5,41.0,30.16,South,176,0.0,-999.0,96,-99.99,,,0.00,weatherlink.com 1.10,2013-03-11 12:41:00,
2013-03-11 08:56:00,41.8,41.0,30.16,South,173,0.0,-999.0,97,-99.99,,,0.00,weatherlink.com 1.10,2013-03-11 12:56:00,
2013-03-11 09:26:00,42.2,41.0,30.16,SSW,205,3.0,-999.0,96,-99.99,,,0.00,weatherlink.com 1.10,2013-03-11 13:26:00,
2013-03-11 09:41:00,42.3,42.0,30.17,South,178,6.0,-999.0,97,-99.99,,,0.00,weatherlink.com 1.10,2013-03-11 13:41:00,
2013-03-11 09:56:00,42.5,42.0,30.17,SW,221,2.0,-999.0,97,-99.99,,,0.00,weatherlink.com 1.10,2013-03-11 13:56:00,
2013-03-11 10:11:00,42.8,42.0,30.17,South,176,2.0,-999.0,97,-99.99,,,0.00,weatherlink.com 1.10,2013-03-11 14:11:00,
2013-03-11 10:26:00,42.9,42.0,30.16,South,182,0.0,-999.0,97,-99.99,,,0.00,weatherlink.com 1.10,2013-03-11 14:26:00,
2013-03-11 10:41:00,43.4,43.0,30.15,SSE,168,5.0,-999.0,97,-99.99,,,0.00,weatherlink.com 1.10,2013-03-11 14:41:00,
2013-03-11 10:56:00,43.9,43.0,30.15,SSW,196,5.0,-999.0,97,-99.99,,,0.00,weatherlink.com 1.10,2013-03-11 14:56:00,
2013-03-11 11:11:00,44.5,44.0,30.15,SE,142,4.0,-999.0,96,-99.99,,,0.00,weatherlink.com 1.10,2013-03-11 15:11:00,
2013-03-11 11:26:00,44.8,43.0,30.14,SW,225,4.0,-999.0,94,-99.99,,,0.00,weatherlink.com 1.10,2013-03-11 15:26:00,
2013-03-11 11:41:00,45.3,43.0,30.14,SSE,163,4.0,-999.0,92,-99.99,,,0.00,weatherlink.com 1.10,2013-03-11 15:41:00,
2013-03-11 11:56:00,45.3,43.0,30.14,SW,223,7.0,-999.0,92,-99.99,,,0.00,weatherlink.com 1.10,2013-03-11 15:56:00,
2013-03-11 12:11:00,46.4,43.0,30.14,SE,140,8.0,-999.0,89,-99.99,,,0.00,weatherlink.com 1.10,2013-03-11 16:11:00,
2013-03-11 12:26:00,47.2,44.0,30.14,South,172,2.0,-999.0,87,-99.99,,,0.00,weatherlink.com 1.10,2013-03-11 16:26:00,
2013-03-11 12:41:00,47.7,43.0,30.14,South,183,8.0,-999.0,85,-99.99,,,0.00,weatherlink.com 1.10,2013-03-11 16:41:00,
2013-03-11 12:56:00,48.7,43.0,30.13,South,190,4.0,-999.0,82,-99.99,,,0.00,weatherlink.com 1.10,2013-03-11 16:56:00,
2013-03-11 13:11:00,49.6,44.0,30.12,SSW,192,2.0,-999.0,80,-99.99,,,0.00,weatherlink.com 1.10,2013-03-11 17:11:00,
2013-03-11 13:41:00,52.2,45.0,30.10,South,188,4.0,-999.0,77,-99.99,,,0.00,weatherlink.com 1.10,2013-03-11 17:41:00,
2013-03-11 13:56:00,52.6,45.0,30.09,South,172,5.0,-999.0,75,-99.99,,,0.00,weatherlink.com 1.10,2013-03-11 17:56:00,
2013-03-11 14:11:00,53.2,45.0,30.09,South,178,5.0,-999.0,75,-99.99,,,0.00,weatherlink.com 1.10,2013-03-11 18:11:00,
2013-03-11 14:26:00,53.8,46.0,30.08,SSE,166,4.0,-999.0,75,-99.99,,,0.00,weatherlink.com 1.10,2013-03-11 18:26:00,
2013-03-11 14:41:00,53.9,46.0,30.07,SSE,163,4.0,-999.0,74,-99.99,,,0.00,weatherlink.com 1.10,2013-03-11 18:41:00,
2013-03-11 15:11:00,53.4,46.0,30.05,SE,134,7.0,-999.0,76,-99.99,,,0.00,weatherlink.com 1.10,2013-03-11 19:11:00,
2013-03-11 15:40:00,54.0,46.0,30.05,SE,139,4.0,-999.0,75,-99.99,,,0.00,weatherlink.com 1.10,2013-03-11 19:40:00,
2013-03-11 15:55:00,54.0,46.0,30.05,SE,130,7.0,-999.0,75,-99.99,,,0.00,weatherlink.com 1.10,2013-03-11 19:55:00,
2013-03-11 16:10:00,54.4,46.0,30.04,SE,144,12.0,-999.0,74,-99.99,,,0.00,weatherlink.com 1.10,2013-03-11 20:10:00,
2013-03-11 16:25:00,53.9,46.0,30.04,SE,144,7.0,-999.0,75,-99.99,,,0.00,weatherlink.com 1.10,2013-03-11 20:25:00,
2013-03-11 16:41:00,53.9,47.0,30.03,SE,125,2.0,-999.0,76,-99.99,,,0.00,weatherlink.com 1.10,2013-03-11 20:41:00,
2013-03-11 16:56:00,53.4,46.0,30.03,SE,131,7.0,-999.0,77,-99.99,,,0.00,weatherlink.com 1.10,2013-03-11 20:56:00,
2013-03-11 17:11:00,53.5,46.0,30.02,ESE,118,4.0,-999.0,77,-99.99,,,0.00,weatherlink.com 1.10,2013-03-11 21:11:00,
2013-03-11 17:26:00,53.6,47.0,30.01,ESE,119,5.0,-999.0,77,-99.99,,,0.00,weatherlink.com 1.10,2013-03-11 21:26:00,
2013-03-11 17:41:00,52.9,47.0,30.01,ESE,118,14.0,-999.0,79,-99.99,,,0.00,weatherlink.com 1.10,2013-03-11 21:41:00,
2013-03-11 17:56:00,52.6,47.0,30.00,SSE,147,6.0,-999.0,80,-99.99,,,0.00,weatherlink.com 1.10,2013-03-11 21:56:00,
2013-03-11 18:26:00,52.3,47.0,29.99,ESE,118,9.0,-999.0,82,-99.99,,,0.00,weatherlink.com 1.10,2013-03-11 22:26:00,
2013-03-11 18:56:00,52.2,47.0,30.01,SSE,156,4.0,-999.0,83,-99.99,,,0.00,weatherlink.com 1.10,2013-03-11 22:56:00,
2013-03-11 19:56:00,51.1,47.0,30.00,SE,146,8.0,-999.0,87,-99.99,,,0.00,weatherlink.com 1.10,2013-03-11 23:56:00,
2013-03-11 20:41:00,51.3,48.0,29.98,ESE,115,7.0,-999.0,87,-99.99,,,0.00,weatherlink.com 1.10,2013-03-12 00:41:00,
2013-03-11 20:56:00,51.3,48.0,29.98,SE,144,7.0,-999.0,87,-99.99,,,0.00,weatherlink.com 1.10,2013-03-12 00:56:00,
2013-03-11 21:26:00,51.8,48.0,30.00,SSE,149,11.0,-999.0,86,-99.99,,,0.00,weatherlink.com 1.10,2013-03-12 01:26:00,
2013-03-11 21:41:00,51.7,48.0,29.99,SE,130,5.0,-999.0,87,-99.99,,,0.00,weatherlink.com 1.10,2013-03-12 01:41:00,
2013-03-11 21:56:00,51.2,48.0,29.99,SE,136,7.0,-999.0,87,-99.99,,,0.00,weatherlink.com 1.10,2013-03-12 01:56:00,
2013-03-11 22:26:00,50.2,47.0,29.99,SSE,147,5.0,-999.0,89,-99.99,,,0.00,weatherlink.com 1.10,2013-03-12 02:26:00,
2013-03-11 22:41:00,50.1,47.0,29.99,ESE,121,8.0,-999.0,90,-99.99,,,0.00,weatherlink.com 1.10,2013-03-12 02:41:00,
2013-03-11 22:56:00,50.1,47.0,29.98,SE,144,5.0,-999.0,90,-99.99,,,0.00,weatherlink.com 1.10,2013-03-12 02:56:00,
2013-03-11 23:11:00,50.5,47.0,29.98,SE,136,5.0,-999.0,89,-99.99,,,0.00,weatherlink.com 1.10,2013-03-12 03:11:00,
2013-03-11 23:26:00,51.0,48.0,29.98,SE,138,6.0,-999.0,88,-99.99,,,0.00,weatherlink.com 1.10,2013-03-12 03:26:00,
2013-03-11 23:41:00,51.1,47.0,29.97,SSE,157,1.0,-999.0,87,-99.99,,,0.00,weatherlink.com 1.10,2013-03-12 03:41:00,
2013-03-11 23:56:00,51.3,48.0,29.95,ESE,109,9.0,-999.0,87,-99.99,,,0.00,weatherlink.com 1.10,2013-03-12 03:56:00,